TimeCST,TemperatureF,Dew PointF,Humidity,Sea Level PressureIn,VisibilityMPH,Wind Direction,Wind SpeedMPH,Gust SpeedMPH,PrecipitationIn,Events,Conditions,WindDirDegrees,DateUTC
12:56 AM,37.0,30.9,79,30.15,10.0,Calm,Calm,-,N/A,,Clear,0,2013-03-04 06:56:00
1:56 AM,36.0,30.9,82,30.15,10.0,Calm,Calm,-,N/A,,Clear,0,2013-03-04 07:56:00
2:56 AM,37.0,30.9,79,30.14,10.0,Calm,Calm,-,N/A,,Clear,0,2013-03-04 08:56:00
3:56 AM,35.1,30.9,85,30.14,10.0,Calm,Calm,-,N/A,,Clear,0,2013-03-04 09:56:00
4:56 AM,36.0,30.9,82,30.14,10.0,Calm,Calm,-,N/A,,Clear,0,2013-03-04 10:56:00
5:56 AM,37.0,30.9,79,30.15,10.0,Calm,Calm,-,N/A,,Partly Cloudy,0,2013-03-04 11:56:00
6:56 AM,37.9,34.0,86,30.16,10.0,SE,4.6,-,N/A,,Scattered Clouds,130,2013-03-04 12:56:00
7:56 AM,48.9,39.9,71,30.17,10.0,SE,5.8,-,N/A,,Partly Cloudy,130,2013-03-04 13:56:00
8:56 AM,54.0,39.0,57,30.18,10.0,SE,8.1,-,N/A,,Scattered Clouds,140,2013-03-04 14:56:00
9:56 AM,57.9,39.9,51,30.17,10.0,SSE,8.1,17.3,N/A,,Partly Cloudy,160,2013-03-04 15:56:00
10:56 AM,62.1,42.1,48,30.17,10.0,SE,11.5,-,N/A,,Scattered Clouds,140,2013-03-04 16:56:00
11:56 AM,64.4,42.8,45,30.15,10.0,South,16.1,20.7,N/A,,Scattered Clouds,170,2013-03-04 17:56:00
12:56 PM,63.0,44.1,50,30.11,10.0,South,16.1,20.7,N/A,,Scattered Clouds,170,2013-03-04 18:56:00
1:56 PM,63.0,45.0,52,30.08,10.0,South,15.0,-,N/A,,Mostly Cloudy,180,2013-03-04 19:56:00
2:56 PM,64.0,46.9,54,30.07,10.0,South,15.0,23.0,N/A,,Mostly Cloudy,180,2013-03-04 20:56:00
3:56 PM,62.1,48.0,60,30.06,10.0,SSE,13.8,23.0,N/A,,Mostly Cloudy,160,2013-03-04 21:56:00
4:49 PM,60.8,48.2,63,30.06,10.0,SSE,9.2,-,N/A,,Overcast,160,2013-03-04 22:49:00
4:56 PM,60.1,48.9,67,30.06,10.0,South,12.7,-,N/A,,Overcast,170,2013-03-04 22:56:00
5:53 PM,59.0,50.0,72,30.06,10.0,SSE,9.2,-,N/A,,Overcast,150,2013-03-04 23:53:00
5:56 PM,59.0,50.0,72,30.05,10.0,SSE,10.4,-,N/A,,Overcast,150,2013-03-04 23:56:00
6:56 PM,57.9,51.1,78,30.04,10.0,SE,10.4,-,N/A,,Overcast,140,2013-03-05 00:56:00
7:56 PM,57.0,51.1,81,30.02,10.0,SSE,8.1,-,N/A,,Mostly Cloudy,150,2013-03-05 01:56:00
8:56 PM,57.0,50.0,77,30.02,10.0,South,8.1,-,N/A,,Mostly Cloudy,170,2013-03-05 02:56:00
9:56 PM,57.0,50.0,77,30.02,10.0,SSE,6.9,-,N/A,,Mostly Cloudy,160,2013-03-05 03:56:00
10:56 PM,57.9,51.1,78,30.01,10.0,South,8.1,-,N/A,,Scattered Clouds,180,2013-03-05 04:56:00
11:56 PM,62.1,50.0,65,29.98,10.0,South,15.0,-,N/A,,Clear,190,2013-03-05 05:56:00